Погода в Оленице

Россия / Мурманская область     66°28′06″N   35°19′49″E
темп.,
°C
ветер,
м/с
пор.,
м/с
влажн.,
%
обл.,
%
осадки,
мм/ч
давл.,
гПа
погр.,
м
5 марта, пт
пт500:00−13с349394 0.3 100250
03:00−15с369289 0.3 100493
06:00−11с5984100 0.0 1004283
09:00−11с5983100 0.0 1006343
12:00−8с5879100 0.0 1007534
15:00−7ссз357699 0.0 1008617
18:00−9сз238792 0.0 1008216
21:00−11сз119092 0.0 1008151
6 марта, сб
сб600:00−11з129280 0.0 1008204
03:00−10з239287 0.0 1008239
06:00−10зюз2392100 0.0 1005212
09:00−9ююз4588100 0.1 1003322
12:00−8ю688992 0.0 1000355
15:00−8ююв8118995 0.0 997436
18:00−8юв91388100 0.0 994543
21:00−8юв101491100 0.1 992712
7 марта, вс
вс700:00−7вюв101490100 0.2 992774
03:00−8в101590100 0.3 993768
06:00−12в81491100 0.1 995545
09:00−12всв91489100 0.1 999485
12:00−13всв9149198 0.0 1004432
15:00−14св9138991 0.0 1007432
18:00−17св8149125 0.0 1010430
21:00−19св7139812 0.0 1012368
8 марта, пн
пн800:00−20св712990 0.0 1014348
03:00−20св6111005 0.0 1014313
06:00−21св5910051 0.0 1015246
09:00−20св4610065 0.0 1016217
12:00−17св239190 0.0 1016301
15:00−15ссв238579 0.0 1016434
18:00−17св338948 0.0 1017260
21:00−20всв339947 0.0 1017147
9 марта, вт
вт900:00−21всв229946 0.0 1017114
03:00−21ссв229961 0.0 1018108
06:00−17зсз469567 0.0 1018216
09:00−18ссз579779 0.0 1018253
12:00−14с468341 0.0 1019386
15:00−14ссв468045 0.0 1020417
18:00−17св33850 0.0 1020165
21:00−19св22870 0.0 102099